GGZDO EGEO-EGHF

Flight info

Callsign GGZDO
Flight time 3h 51m
Altitude 9000
Route FYNER Q602 GOW L612 HON N859 CPT Y321 PEPIS
Aircraft C172/L-SDFGRYZ/S

Departure

Time 2026-05-07 10:13
Airport Oban Airport (EGEO)

Arrival

Time 2026-05-07 14:04
Airport Solent Airport (EGHF)
Time Latitude Longitude Altitude Speed Heading
2026-05-07 10:01 56.46179 -5.39879 24 ft 0 kts 355°
2026-05-07 10:08 56.46180 -5.39879 24 ft 0 kts 355°
2026-05-07 10:10 56.46181 -5.39879 24 ft 0 kts 355°
2026-05-07 10:10 56.46194 -5.39890 24 ft 2 kts 317°
2026-05-07 10:10 56.46209 -5.39954 24 ft 13 kts 329°
2026-05-07 10:11 56.46328 -5.39980 24 ft 23 kts 359°
2026-05-07 10:11 56.46515 -5.39950 24 ft 31 kts
2026-05-07 10:11 56.46737 -5.39922 24 ft 29 kts 11°
2026-05-07 10:11 56.46889 -5.39878 24 ft 15 kts
2026-05-07 10:12 56.46902 -5.39901 24 ft 0 kts 190°
2026-05-07 10:12 56.46791 -5.39921 24 ft 34 kts 185°
2026-05-07 10:12 56.46406 -5.39980 51 ft 70 kts 186°
2026-05-07 10:13 56.45932 -5.40090 295 ft 68 kts 191°
2026-05-07 10:13 56.45496 -5.40212 571 ft 61 kts 184°
2026-05-07 10:13 56.45052 -5.40283 748 ft 67 kts 187°
2026-05-07 10:13 56.44577 -5.40366 955 ft 70 kts 187°
2026-05-07 10:14 56.44085 -5.40290 1166 ft 74 kts 165°
2026-05-07 10:14 56.43609 -5.39903 1375 ft 76 kts 156°
2026-05-07 10:14 56.43133 -5.39449 1585 ft 78 kts 156°
2026-05-07 10:14 56.42638 -5.39005 1794 ft 80 kts 157°
2026-05-07 10:15 56.42129 -5.38588 2012 ft 80 kts 162°
2026-05-07 10:15 56.41575 -5.38169 2092 ft 95 kts 163°
2026-05-07 10:15 56.40942 -5.37711 2225 ft 98 kts 162°
2026-05-07 10:15 56.40309 -5.37249 2397 ft 98 kts 162°
2026-05-07 10:16 56.39689 -5.36794 2569 ft 97 kts 162°
2026-05-07 10:16 56.39067 -5.36336 2744 ft 96 kts 163°
2026-05-07 10:16 56.38462 -5.35890 2907 ft 92 kts 163°
2026-05-07 10:16 56.37874 -5.35457 3034 ft 90 kts 163°
2026-05-07 10:17 56.37300 -5.35035 3155 ft 88 kts 163°
2026-05-07 10:17 56.36738 -5.34622 3278 ft 87 kts 164°
2026-05-07 10:17 56.36239 -5.33987 3401 ft 90 kts 143°
2026-05-07 10:17 56.35803 -5.33173 3507 ft 91 kts 143°
2026-05-07 10:18 56.35364 -5.32345 3608 ft 91 kts 143°
2026-05-07 10:18 56.34922 -5.31517 3709 ft 92 kts 143°
2026-05-07 10:18 56.34482 -5.30697 3808 ft 92 kts 144°
2026-05-07 10:18 56.34038 -5.29872 3908 ft 92 kts 144°
2026-05-07 10:19 56.33592 -5.29046 4008 ft 92 kts 144°
2026-05-07 10:19 56.33148 -5.28223 4108 ft 91 kts 144°
2026-05-07 10:19 56.32701 -5.27399 4192 ft 93 kts 144°
2026-05-07 10:19 56.32247 -5.26562 4271 ft 94 kts 145°
2026-05-07 10:20 56.31793 -5.25727 4347 ft 95 kts 145°
2026-05-07 10:20 56.31331 -5.24875 4423 ft 95 kts 145°
2026-05-07 10:20 56.30867 -5.24018 4498 ft 96 kts 145°
2026-05-07 10:20 56.30400 -5.23156 4574 ft 96 kts 146°
2026-05-07 10:21 56.29938 -5.22303 4649 ft 96 kts 146°
2026-05-07 10:21 56.29469 -5.21439 4724 ft 96 kts 146°
2026-05-07 10:21 56.29004 -5.20580 4799 ft 96 kts 146°
2026-05-07 10:21 56.28538 -5.19723 4873 ft 96 kts 146°
2026-05-07 10:22 56.28074 -5.18866 4949 ft 95 kts 146°
2026-05-07 10:22 56.27611 -5.18013 5023 ft 95 kts 146°
2026-05-07 10:22 56.27148 -5.17162 5097 ft 95 kts 146°
2026-05-07 10:22 56.26686 -5.16312 5172 ft 95 kts 146°
2026-05-07 10:23 56.26231 -5.15475 5246 ft 94 kts 146°
2026-05-07 10:23 56.25771 -5.14630 5320 ft 94 kts 147°
2026-05-07 10:23 56.25312 -5.13786 5395 ft 94 kts 147°
2026-05-07 10:23 56.24852 -5.12941 5470 ft 95 kts 147°
2026-05-07 10:24 56.24391 -5.12096 5546 ft 95 kts 147°
2026-05-07 10:24 56.23929 -5.11249 5621 ft 95 kts 147°
2026-05-07 10:24 56.23465 -5.10398 5696 ft 95 kts 147°
2026-05-07 10:24 56.23000 -5.09545 5771 ft 96 kts 147°
2026-05-07 10:25 56.22535 -5.08692 5846 ft 95 kts 148°
2026-05-07 10:25 56.22070 -5.07839 5921 ft 95 kts 148°
2026-05-07 10:25 56.21612 -5.06999 5995 ft 95 kts 148°
2026-05-07 10:25 56.21149 -5.06151 6070 ft 95 kts 148°
2026-05-07 10:26 56.20685 -5.05302 6145 ft 95 kts 148°
2026-05-07 10:26 56.20224 -5.04457 6219 ft 95 kts 148°
2026-05-07 10:26 56.19764 -5.03615 6294 ft 94 kts 148°
2026-05-07 10:26 56.19301 -5.02770 6355 ft 95 kts 148°
2026-05-07 10:27 56.18830 -5.01913 6407 ft 97 kts 148°
2026-05-07 10:27 56.18354 -5.01047 6458 ft 98 kts 148°
2026-05-07 10:27 56.17875 -5.00172 6510 ft 99 kts 148°
2026-05-07 10:27 56.17394 -4.99293 6560 ft 99 kts 147°
2026-05-07 10:28 56.16911 -4.98412 6610 ft 99 kts 147°
2026-05-07 10:28 56.16429 -4.97530 6661 ft 99 kts 147°
2026-05-07 10:28 56.15953 -4.96661 6710 ft 99 kts 148°
2026-05-07 10:28 56.15471 -4.95782 6760 ft 99 kts 148°
2026-05-07 10:29 56.14989 -4.94903 6809 ft 99 kts 148°
2026-05-07 10:29 56.14507 -4.94025 6859 ft 99 kts 148°
2026-05-07 10:29 56.14025 -4.93147 6909 ft 99 kts 148°
2026-05-07 10:30 56.13060 -4.91391 7009 ft 99 kts 148°
2026-05-07 10:30 56.12578 -4.90514 7059 ft 98 kts 148°
2026-05-07 10:30 56.12096 -4.89639 7108 ft 99 kts 147°
2026-05-07 10:30 56.11615 -4.88764 7158 ft 98 kts 147°
2026-05-07 10:31 56.11140 -4.87900 7207 ft 98 kts 147°
2026-05-07 10:31 56.10659 -4.87026 7257 ft 98 kts 147°
2026-05-07 10:31 56.10340 -4.86448 7290 ft 98 kts 147°
2026-05-07 10:31 56.09697 -4.85280 7357 ft 98 kts 147°
2026-05-07 10:32 56.09379 -4.84703 7390 ft 98 kts 147°
2026-05-07 10:32 56.08899 -4.83832 7439 ft 98 kts 147°
2026-05-07 10:32 56.08263 -4.82679 7505 ft 98 kts 147°
2026-05-07 10:32 56.07784 -4.81810 7555 ft 98 kts 148°
2026-05-07 10:33 56.07461 -4.81223 7589 ft 98 kts 148°
2026-05-07 10:33 56.06983 -4.80353 7639 ft 98 kts 148°
2026-05-07 10:33 56.06502 -4.79481 7690 ft 99 kts 148°
2026-05-07 10:33 56.06024 -4.78616 7741 ft 99 kts 148°
2026-05-07 10:34 56.05536 -4.77733 7792 ft 100 kts 148°
2026-05-07 10:34 56.05045 -4.76847 7842 ft 100 kts 148°
2026-05-07 10:34 56.04554 -4.75959 7892 ft 100 kts 148°
2026-05-07 10:34 56.04062 -4.75069 7942 ft 101 kts 148°
2026-05-07 10:35 56.03570 -4.74179 7992 ft 101 kts 147°
2026-05-07 10:35 56.03076 -4.73287 8042 ft 101 kts 147°
2026-05-07 10:35 56.02582 -4.72395 8092 ft 101 kts 147°
2026-05-07 10:35 56.02087 -4.71502 8142 ft 101 kts 147°
2026-05-07 10:36 56.01594 -4.70612 8192 ft 101 kts 147°
2026-05-07 10:36 56.01102 -4.69723 8242 ft 101 kts 147°
2026-05-07 10:36 56.00609 -4.68834 8291 ft 101 kts 147°
2026-05-07 10:36 56.00116 -4.67946 8341 ft 101 kts 147°
2026-05-07 10:37 55.99623 -4.67060 8390 ft 101 kts 146°
2026-05-07 10:37 55.99136 -4.66183 8440 ft 101 kts 146°
2026-05-07 10:37 55.98643 -4.65296 8489 ft 101 kts 147°
2026-05-07 10:37 55.98150 -4.64409 8539 ft 101 kts 147°
2026-05-07 10:38 55.97658 -4.63524 8589 ft 100 kts 147°
2026-05-07 10:38 55.97166 -4.62639 8639 ft 100 kts 147°
2026-05-07 10:38 55.96674 -4.61754 8688 ft 100 kts 147°
2026-05-07 10:38 55.96183 -4.60871 8738 ft 100 kts 147°
2026-05-07 10:39 55.95692 -4.59990 8788 ft 100 kts 147°
2026-05-07 10:39 55.95204 -4.59113 8837 ft 100 kts 147°
2026-05-07 10:39 55.94714 -4.58235 8887 ft 100 kts 147°
2026-05-07 10:39 55.94226 -4.57360 8936 ft 99 kts 147°
2026-05-07 10:40 55.93741 -4.56492 8971 ft 101 kts 147°
2026-05-07 10:40 55.93238 -4.55598 8978 ft 103 kts 147°
2026-05-07 10:40 55.92726 -4.54687 8976 ft 105 kts 146°
2026-05-07 10:40 55.92207 -4.53768 8975 ft 105 kts 148°
2026-05-07 10:41 55.91636 -4.53011 8975 ft 101 kts 159°
2026-05-07 10:41 55.91029 -4.52393 8975 ft 100 kts 162°
2026-05-07 10:41 55.90410 -4.51826 8974 ft 100 kts 163°
2026-05-07 10:41 55.89786 -4.51268 8974 ft 100 kts 163°
2026-05-07 10:42 55.89163 -4.50703 8974 ft 100 kts 163°
2026-05-07 10:42 55.88544 -4.50130 8974 ft 100 kts 163°
2026-05-07 10:42 55.87935 -4.49558 8974 ft 100 kts 162°
2026-05-07 10:42 55.87321 -4.48973 8974 ft 100 kts 162°
2026-05-07 10:43 55.86707 -4.48385 8970 ft 100 kts 162°
2026-05-07 10:43 55.86094 -4.47794 8968 ft 100 kts 162°
2026-05-07 10:43 55.85481 -4.47202 8968 ft 100 kts 162°
2026-05-07 10:43 55.84868 -4.46611 8968 ft 100 kts 162°
2026-05-07 10:44 55.84257 -4.46020 8968 ft 100 kts 162°
2026-05-07 10:44 55.83645 -4.45429 8969 ft 100 kts 162°
2026-05-07 10:44 55.83034 -4.44839 8969 ft 100 kts 162°
2026-05-07 10:44 55.82422 -4.44249 8969 ft 100 kts 162°
2026-05-07 10:45 55.81818 -4.43666 8968 ft 100 kts 162°
2026-05-07 10:45 55.81206 -4.43076 8968 ft 100 kts 162°
2026-05-07 10:45 55.80591 -4.42484 8968 ft 100 kts 162°
2026-05-07 10:45 55.79980 -4.41895 8968 ft 100 kts 162°
2026-05-07 10:46 55.79367 -4.41304 8969 ft 100 kts 162°
2026-05-07 10:46 55.78756 -4.40716 8969 ft 100 kts 162°
2026-05-07 10:46 55.78152 -4.40135 8969 ft 100 kts 162°
2026-05-07 10:46 55.77541 -4.39547 8969 ft 100 kts 162°
2026-05-07 10:47 55.76930 -4.38959 8969 ft 100 kts 162°
2026-05-07 10:47 55.76313 -4.38396 8969 ft 98 kts 168°
2026-05-07 10:47 55.75674 -4.38013 8970 ft 96 kts 172°
2026-05-07 10:47 55.75032 -4.37660 8970 ft 96 kts 172°
2026-05-07 10:48 55.74389 -4.37306 8970 ft 96 kts 172°
2026-05-07 10:48 55.73756 -4.36958 8970 ft 96 kts 172°
2026-05-07 10:48 55.73114 -4.36605 8970 ft 96 kts 172°
2026-05-07 10:48 55.72472 -4.36252 8970 ft 96 kts 172°
2026-05-07 10:49 55.71889 -4.35932 8970 ft 96 kts 172°
2026-05-07 10:49 55.71247 -4.35580 8970 ft 96 kts 172°
2026-05-07 10:49 55.70603 -4.35226 8970 ft 96 kts 172°
2026-05-07 10:49 55.69969 -4.34878 8970 ft 96 kts 172°
2026-05-07 10:50 55.69328 -4.34526 8970 ft 96 kts 172°
2026-05-07 10:50 55.68686 -4.34174 8970 ft 96 kts 172°
2026-05-07 10:50 55.68044 -4.33822 8971 ft 96 kts 172°
2026-05-07 10:50 55.67403 -4.33470 8971 ft 96 kts 172°
2026-05-07 10:51 55.66759 -4.33117 8971 ft 96 kts 172°
2026-05-07 10:51 55.66117 -4.32765 8971 ft 96 kts 172°
2026-05-07 10:51 55.65475 -4.32413 8971 ft 97 kts 172°
2026-05-07 10:51 55.64834 -4.32061 8971 ft 97 kts 172°
2026-05-07 10:52 55.64210 -4.31625 8971 ft 99 kts 165°
2026-05-07 10:52 55.63597 -4.31041 8971 ft 100 kts 161°
2026-05-07 10:52 55.62993 -4.30407 8971 ft 101 kts 160°
2026-05-07 10:52 55.62392 -4.29763 8971 ft 101 kts 160°
2026-05-07 10:53 55.61789 -4.29126 8971 ft 101 kts 160°
2026-05-07 10:53 55.61184 -4.28500 8971 ft 101 kts 160°
2026-05-07 10:53 55.60578 -4.27883 8971 ft 100 kts 161°
2026-05-07 10:53 55.59970 -4.27272 8971 ft 100 kts 161°
2026-05-07 10:54 55.59369 -4.26674 8971 ft 100 kts 161°
2026-05-07 10:54 55.58761 -4.26072 8971 ft 100 kts 161°
2026-05-07 10:54 55.58151 -4.25469 8971 ft 100 kts 161°
2026-05-07 10:54 55.57542 -4.24869 8971 ft 100 kts 161°
2026-05-07 10:55 55.56932 -4.24268 8971 ft 100 kts 161°
2026-05-07 10:55 55.56322 -4.23667 8971 ft 100 kts 161°
2026-05-07 10:55 55.55712 -4.23067 8971 ft 100 kts 161°
2026-05-07 10:55 55.55103 -4.22468 8971 ft 100 kts 161°
2026-05-07 10:56 55.54493 -4.21868 8971 ft 100 kts 161°
2026-05-07 10:56 55.53883 -4.21268 8971 ft 100 kts 161°
2026-05-07 10:56 55.53272 -4.20666 8971 ft 100 kts 161°
2026-05-07 10:56 55.52671 -4.20076 8971 ft 100 kts 161°
2026-05-07 10:57 55.52059 -4.19475 8972 ft 100 kts 161°
2026-05-07 10:57 55.51449 -4.18875 8972 ft 100 kts 161°
2026-05-07 10:57 55.50839 -4.18277 8972 ft 100 kts 161°
2026-05-07 10:57 55.50230 -4.17679 8972 ft 100 kts 161°
2026-05-07 10:58 55.49620 -4.17080 8972 ft 100 kts 161°
2026-05-07 10:58 55.49011 -4.16483 8974 ft 100 kts 161°
2026-05-07 10:58 55.48401 -4.15885 8974 ft 100 kts 161°
2026-05-07 10:58 55.47790 -4.15286 8974 ft 100 kts 161°
2026-05-07 10:59 55.47180 -4.14689 8974 ft 100 kts 161°
2026-05-07 10:59 55.46570 -4.14091 8975 ft 100 kts 161°
2026-05-07 10:59 55.45960 -4.13494 8974 ft 100 kts 161°
2026-05-07 10:59 55.45350 -4.12897 8974 ft 100 kts 161°
2026-05-07 11:00 55.44746 -4.12307 8974 ft 100 kts 161°
2026-05-07 11:00 55.44135 -4.11709 8975 ft 101 kts 161°
2026-05-07 11:00 55.43522 -4.11110 8975 ft 101 kts 161°
2026-05-07 11:00 55.42909 -4.10510 8975 ft 101 kts 161°
2026-05-07 11:01 55.42295 -4.09911 8975 ft 101 kts 161°
2026-05-07 11:01 55.41683 -4.09313 8975 ft 101 kts 161°
2026-05-07 11:01 55.41071 -4.08715 8975 ft 101 kts 161°
2026-05-07 11:01 55.40458 -4.08117 8976 ft 100 kts 161°
2026-05-07 11:02 55.39855 -4.07528 8976 ft 100 kts 161°
2026-05-07 11:02 55.39243 -4.06931 8976 ft 100 kts 161°
2026-05-07 11:02 55.38631 -4.06335 8976 ft 100 kts 161°
2026-05-07 11:02 55.38020 -4.05740 8976 ft 100 kts 161°
2026-05-07 11:03 55.37407 -4.05142 8977 ft 100 kts 161°
2026-05-07 11:03 55.36795 -4.04547 8977 ft 100 kts 161°
2026-05-07 11:03 55.36183 -4.03951 8977 ft 100 kts 161°
2026-05-07 11:03 55.35571 -4.03356 8977 ft 100 kts 161°
2026-05-07 11:04 55.34959 -4.02760 8977 ft 100 kts 161°
2026-05-07 11:04 55.34355 -4.02173 8978 ft 100 kts 161°
2026-05-07 11:04 55.33743 -4.01577 8978 ft 100 kts 161°
2026-05-07 11:04 55.33131 -4.00983 8978 ft 100 kts 161°
2026-05-07 11:05 55.32518 -4.00388 8978 ft 100 kts 161°
2026-05-07 11:05 55.31904 -3.99792 8978 ft 101 kts 161°
2026-05-07 11:05 55.31288 -3.99194 8978 ft 101 kts 161°
2026-05-07 11:05 55.30678 -3.98602 8979 ft 102 kts 161°
2026-05-07 11:06 55.30058 -3.98001 8979 ft 102 kts 161°
2026-05-07 11:06 55.29439 -3.97401 8980 ft 102 kts 161°
2026-05-07 11:06 55.28820 -3.96801 8980 ft 102 kts 161°
2026-05-07 11:06 55.28199 -3.96199 8980 ft 102 kts 161°
2026-05-07 11:07 55.27580 -3.95599 8980 ft 102 kts 161°
2026-05-07 11:07 55.26960 -3.94999 8980 ft 102 kts 161°
2026-05-07 11:07 55.26341 -3.94399 8980 ft 102 kts 161°
2026-05-07 11:07 55.25722 -3.93800 8981 ft 102 kts 161°
2026-05-07 11:08 55.25103 -3.93201 8981 ft 102 kts 161°
2026-05-07 11:08 55.24483 -3.92602 8981 ft 102 kts 161°
2026-05-07 11:08 55.23858 -3.92000 8994 ft 104 kts 161°
2026-05-07 11:08 55.23216 -3.91384 8986 ft 107 kts 160°
2026-05-07 11:09 55.22562 -3.90757 8983 ft 108 kts 160°
2026-05-07 11:09 55.21911 -3.90130 8982 ft 108 kts 160°
2026-05-07 11:09 55.21255 -3.89495 8972 ft 106 kts 160°
2026-05-07 11:09 55.20616 -3.88873 8978 ft 104 kts 160°
2026-05-07 11:10 55.19986 -3.88261 8981 ft 103 kts 160°
2026-05-07 11:10 55.19358 -3.87653 8982 ft 103 kts 160°
2026-05-07 11:10 55.18734 -3.87051 8983 ft 102 kts 160°
2026-05-07 11:10 55.18110 -3.86451 8983 ft 102 kts 160°
2026-05-07 11:11 55.17488 -3.85851 8983 ft 102 kts 160°
2026-05-07 11:11 55.16861 -3.85249 8984 ft 102 kts 160°
2026-05-07 11:11 55.16241 -3.84654 8991 ft 103 kts 160°
2026-05-07 11:11 55.15604 -3.84045 8987 ft 105 kts 160°
2026-05-07 11:12 55.14960 -3.83427 8985 ft 106 kts 160°
2026-05-07 11:12 55.14315 -3.82808 8985 ft 106 kts 160°
2026-05-07 11:12 55.13670 -3.82188 8980 ft 105 kts 160°
2026-05-07 11:12 55.13034 -3.81574 8983 ft 104 kts 160°
2026-05-07 11:13 55.12403 -3.80966 8985 ft 103 kts 160°
2026-05-07 11:13 55.11774 -3.80361 8985 ft 103 kts 160°
2026-05-07 11:13 55.11153 -3.79765 8984 ft 103 kts 160°
2026-05-07 11:13 55.10528 -3.79165 8985 ft 102 kts 160°
2026-05-07 11:14 55.09905 -3.78567 8986 ft 102 kts 160°
2026-05-07 11:14 55.09281 -3.77969 8986 ft 102 kts 160°
2026-05-07 11:14 55.08658 -3.77374 8986 ft 102 kts 160°
2026-05-07 11:14 55.08036 -3.76778 8986 ft 102 kts 160°
2026-05-07 11:15 55.07414 -3.76183 8987 ft 102 kts 160°
2026-05-07 11:15 55.06791 -3.75587 8987 ft 102 kts 160°
2026-05-07 11:15 55.06163 -3.74988 9001 ft 105 kts 160°
2026-05-07 11:15 55.05512 -3.74371 8992 ft 108 kts 160°
2026-05-07 11:16 55.04849 -3.73742 8988 ft 109 kts 160°
2026-05-07 11:16 55.04182 -3.73106 8988 ft 109 kts 160°
2026-05-07 11:16 55.03527 -3.72478 8975 ft 107 kts 159°
2026-05-07 11:16 55.02884 -3.71858 8986 ft 104 kts 159°
2026-05-07 11:17 55.02253 -3.71250 8990 ft 103 kts 160°
2026-05-07 11:17 55.01625 -3.70649 8991 ft 103 kts 160°
2026-05-07 11:17 55.00997 -3.70049 8992 ft 103 kts 160°
2026-05-07 11:17 55.00371 -3.69453 8992 ft 103 kts 160°
2026-05-07 11:18 54.99745 -3.68857 8993 ft 103 kts 160°
2026-05-07 11:18 54.99120 -3.68261 8993 ft 102 kts 160°
2026-05-07 11:18 54.98494 -3.67666 8993 ft 102 kts 160°
2026-05-07 11:18 54.97868 -3.67070 8994 ft 102 kts 160°
2026-05-07 11:19 54.97241 -3.66474 8994 ft 102 kts 160°
2026-05-07 11:19 54.96623 -3.65886 8994 ft 102 kts 160°
2026-05-07 11:19 54.95998 -3.65292 8995 ft 102 kts 160°
2026-05-07 11:19 54.95374 -3.64698 8995 ft 102 kts 160°
2026-05-07 11:20 54.94749 -3.64104 8995 ft 102 kts 160°
2026-05-07 11:20 54.94125 -3.63511 8995 ft 102 kts 160°
2026-05-07 11:20 54.93500 -3.62917 8996 ft 102 kts 160°
2026-05-07 11:20 54.92875 -3.62324 8996 ft 102 kts 160°
2026-05-07 11:21 54.92250 -3.61731 8996 ft 102 kts 160°
2026-05-07 11:21 54.91624 -3.61137 8996 ft 102 kts 160°
2026-05-07 11:21 54.90998 -3.60544 8997 ft 102 kts 160°
2026-05-07 11:21 54.90374 -3.59952 8997 ft 102 kts 160°
2026-05-07 11:22 54.89757 -3.59367 8997 ft 102 kts 160°
2026-05-07 11:22 54.89136 -3.58778 8996 ft 101 kts 160°
2026-05-07 11:22 54.88522 -3.58195 8999 ft 101 kts 160°
2026-05-07 11:22 54.87904 -3.57611 8999 ft 101 kts 160°
2026-05-07 11:23 54.87287 -3.57027 8999 ft 101 kts 160°
2026-05-07 11:23 54.86881 -3.56642 8997 ft 100 kts 160°
2026-05-07 11:23 54.86281 -3.56071 8995 ft 97 kts 160°
2026-05-07 11:23 54.85693 -3.55513 8998 ft 97 kts 160°
2026-05-07 11:24 54.85094 -3.54948 9004 ft 99 kts 160°
2026-05-07 11:24 54.84482 -3.54374 9003 ft 101 kts 160°
2026-05-07 11:24 54.83864 -3.53793 9001 ft 101 kts 160°
2026-05-07 11:24 54.83241 -3.53207 9000 ft 102 kts 160°
2026-05-07 11:25 54.82618 -3.52619 9000 ft 102 kts 160°
2026-05-07 11:25 54.81994 -3.52029 9000 ft 102 kts 160°
2026-05-07 11:25 54.81369 -3.51440 9001 ft 102 kts 160°
2026-05-07 11:25 54.80752 -3.50858 9001 ft 102 kts 160°
2026-05-07 11:26 54.80127 -3.50268 9001 ft 102 kts 160°
2026-05-07 11:26 54.79501 -3.49678 9001 ft 102 kts 159°
2026-05-07 11:26 54.78874 -3.49087 9001 ft 103 kts 159°
2026-05-07 11:26 54.78244 -3.48495 9002 ft 103 kts 159°
2026-05-07 11:27 54.77617 -3.47904 9002 ft 103 kts 159°
2026-05-07 11:27 54.76988 -3.47313 9002 ft 103 kts 159°
2026-05-07 11:27 54.76359 -3.46721 9002 ft 103 kts 159°
2026-05-07 11:27 54.75731 -3.46130 9002 ft 103 kts 159°
2026-05-07 11:28 54.75110 -3.45547 9003 ft 103 kts 159°
2026-05-07 11:28 54.74482 -3.44956 9003 ft 103 kts 159°
2026-05-07 11:28 54.73851 -3.44364 9003 ft 103 kts 159°
2026-05-07 11:28 54.73222 -3.43773 9003 ft 103 kts 159°
2026-05-07 11:29 54.72592 -3.43182 9003 ft 103 kts 159°
2026-05-07 11:29 54.71965 -3.42593 9003 ft 102 kts 160°
2026-05-07 11:29 54.71338 -3.42005 9003 ft 102 kts 160°
2026-05-07 11:29 54.70712 -3.41418 9004 ft 102 kts 160°
2026-05-07 11:30 54.70086 -3.40831 9004 ft 102 kts 160°
2026-05-07 11:30 54.69468 -3.40252 9004 ft 102 kts 160°
2026-05-07 11:30 54.68841 -3.39665 9005 ft 102 kts 160°
2026-05-07 11:30 54.68215 -3.39080 9005 ft 102 kts 160°
2026-05-07 11:31 54.67589 -3.38493 9005 ft 102 kts 160°
2026-05-07 11:31 54.66963 -3.37908 9005 ft 102 kts 160°
2026-05-07 11:31 54.66337 -3.37322 9006 ft 102 kts 160°
2026-05-07 11:31 54.65710 -3.36736 9006 ft 102 kts 160°
2026-05-07 11:32 54.64456 -3.35565 9006 ft 102 kts 160°
2026-05-07 11:32 54.63830 -3.34980 9006 ft 102 kts 160°
2026-05-07 11:32 54.63204 -3.34395 9009 ft 102 kts 160°
2026-05-07 11:33 54.62579 -3.33812 9011 ft 102 kts 160°
2026-05-07 11:33 54.61960 -3.33235 9012 ft 102 kts 160°
2026-05-07 11:33 54.61335 -3.32652 9012 ft 102 kts 160°
2026-05-07 11:33 54.60709 -3.32068 9012 ft 102 kts 160°
2026-05-07 11:34 54.60082 -3.31485 9012 ft 102 kts 160°
2026-05-07 11:34 54.59454 -3.30899 9013 ft 102 kts 160°
2026-05-07 11:34 54.58826 -3.30314 9013 ft 102 kts 160°
2026-05-07 11:34 54.58199 -3.29730 9013 ft 102 kts 160°
2026-05-07 11:35 54.57571 -3.29146 9013 ft 102 kts 160°
2026-05-07 11:35 54.56953 -3.28571 9014 ft 102 kts 160°
2026-05-07 11:35 54.56326 -3.27988 9014 ft 102 kts 160°
2026-05-07 11:35 54.55699 -3.27405 9014 ft 102 kts 160°
2026-05-07 11:36 54.55072 -3.26823 9014 ft 102 kts 160°
2026-05-07 11:36 54.54446 -3.26241 9015 ft 102 kts 160°
2026-05-07 11:36 54.53819 -3.25659 9015 ft 102 kts 160°
2026-05-07 11:36 54.53192 -3.25077 9015 ft 102 kts 160°
2026-05-07 11:37 54.52563 -3.24493 9015 ft 102 kts 160°
2026-05-07 11:37 54.51936 -3.23912 9016 ft 102 kts 160°
2026-05-07 11:37 54.51308 -3.23329 9016 ft 102 kts 160°
2026-05-07 11:37 54.50680 -3.22747 9016 ft 102 kts 160°
2026-05-07 11:38 54.50052 -3.22165 9015 ft 102 kts 160°
2026-05-07 11:38 54.49424 -3.21583 9014 ft 102 kts 160°
2026-05-07 11:38 54.48796 -3.21002 9015 ft 102 kts 160°
2026-05-07 11:38 54.48176 -3.20428 9015 ft 102 kts 160°
2026-05-07 11:39 54.47549 -3.19848 9015 ft 102 kts 160°
2026-05-07 11:39 54.46922 -3.19268 9016 ft 102 kts 160°
2026-05-07 11:39 54.46294 -3.18687 9016 ft 102 kts 160°
2026-05-07 11:39 54.45667 -3.18107 9017 ft 102 kts 160°
2026-05-07 11:40 54.45038 -3.17526 9017 ft 102 kts 160°
2026-05-07 11:40 54.44411 -3.16947 9017 ft 102 kts 160°
2026-05-07 11:40 54.43784 -3.16368 9018 ft 102 kts 160°
2026-05-07 11:40 54.43158 -3.15790 9018 ft 102 kts 160°
2026-05-07 11:41 54.42530 -3.15210 9019 ft 102 kts 160°
2026-05-07 11:41 54.41902 -3.14631 9019 ft 102 kts 160°
2026-05-07 11:41 54.41272 -3.14051 9019 ft 102 kts 160°
2026-05-07 11:41 54.40653 -3.13480 9020 ft 103 kts 160°
2026-05-07 11:42 54.40023 -3.12900 9020 ft 103 kts 160°
2026-05-07 11:42 54.39393 -3.12319 9021 ft 103 kts 160°
2026-05-07 11:42 54.38764 -3.11740 9021 ft 103 kts 160°
2026-05-07 11:42 54.38135 -3.11161 9022 ft 103 kts 160°
2026-05-07 11:43 54.37507 -3.10583 9022 ft 103 kts 160°
2026-05-07 11:43 54.36878 -3.10004 9022 ft 103 kts 160°
2026-05-07 11:43 54.36247 -3.09424 9023 ft 103 kts 159°
2026-05-07 11:43 54.35616 -3.08844 9023 ft 103 kts 159°
2026-05-07 11:44 54.34984 -3.08263 9024 ft 103 kts 159°
2026-05-07 11:44 54.34351 -3.07683 9024 ft 103 kts 159°
2026-05-07 11:44 54.33728 -3.07110 9025 ft 103 kts 159°
2026-05-07 11:44 54.33095 -3.06529 9025 ft 103 kts 159°
2026-05-07 11:45 54.32463 -3.05949 9026 ft 103 kts 159°
2026-05-07 11:45 54.31829 -3.05367 9026 ft 103 kts 159°
2026-05-07 11:45 54.31196 -3.04787 9027 ft 103 kts 159°
2026-05-07 11:45 54.30564 -3.04207 9036 ft 102 kts 159°
2026-05-07 11:46 54.29935 -3.03630 9040 ft 103 kts 159°
2026-05-07 11:46 54.29303 -3.03052 9041 ft 103 kts 160°
2026-05-07 11:46 54.28679 -3.02481 9041 ft 103 kts 159°
2026-05-07 11:46 54.28045 -3.01901 9041 ft 103 kts 159°
2026-05-07 11:47 54.27411 -3.01321 9042 ft 103 kts 159°
2026-05-07 11:47 54.26776 -3.00740 9044 ft 103 kts 159°
2026-05-07 11:47 54.26141 -3.00159 9045 ft 103 kts 159°
2026-05-07 11:47 54.25508 -2.99580 9045 ft 103 kts 159°
2026-05-07 11:48 54.24872 -2.98999 9045 ft 103 kts 159°
2026-05-07 11:48 54.24237 -2.98419 9046 ft 103 kts 159°
2026-05-07 11:48 54.23609 -2.97851 9046 ft 103 kts 161°
2026-05-07 11:48 54.22961 -2.97336 9046 ft 102 kts 164°
2026-05-07 11:49 54.22305 -2.96861 9047 ft 102 kts 165°
2026-05-07 11:49 54.21649 -2.96401 9047 ft 102 kts 165°
2026-05-07 11:49 54.20993 -2.95940 9047 ft 102 kts 165°
2026-05-07 11:49 54.20335 -2.95473 9048 ft 102 kts 165°
2026-05-07 11:50 54.19678 -2.95001 9048 ft 102 kts 165°
2026-05-07 11:50 54.19021 -2.94526 9048 ft 102 kts 164°
2026-05-07 11:50 54.18373 -2.94055 9049 ft 102 kts 164°
2026-05-07 11:50 54.17718 -2.93577 9049 ft 102 kts 164°
2026-05-07 11:51 54.17062 -2.93098 9049 ft 102 kts 164°
2026-05-07 11:51 54.16407 -2.92619 9050 ft 102 kts 164°
2026-05-07 11:51 54.15751 -2.92138 9050 ft 102 kts 164°
2026-05-07 11:51 54.15096 -2.91660 9050 ft 102 kts 164°
2026-05-07 11:52 54.14440 -2.91181 9050 ft 102 kts 164°
2026-05-07 11:52 54.13784 -2.90701 9051 ft 102 kts 164°
2026-05-07 11:52 54.13129 -2.90222 9051 ft 102 kts 164°
2026-05-07 11:52 54.12473 -2.89743 9051 ft 102 kts 164°
2026-05-07 11:53 54.11818 -2.89265 9051 ft 102 kts 164°
2026-05-07 11:53 54.11161 -2.88786 9051 ft 103 kts 164°
2026-05-07 11:53 54.10513 -2.88313 9052 ft 103 kts 164°
2026-05-07 11:53 54.09855 -2.87834 9050 ft 103 kts 164°
2026-05-07 11:54 54.09197 -2.87355 9049 ft 103 kts 164°
2026-05-07 11:54 54.08537 -2.86874 9047 ft 103 kts 164°
2026-05-07 11:54 54.07878 -2.86394 9048 ft 103 kts 164°
2026-05-07 11:54 54.07221 -2.85915 9048 ft 103 kts 164°
2026-05-07 11:55 54.06561 -2.85435 9048 ft 103 kts 164°
2026-05-07 11:55 54.05904 -2.84957 9049 ft 103 kts 164°
2026-05-07 11:55 54.05254 -2.84484 9049 ft 103 kts 164°
2026-05-07 11:55 54.04597 -2.84006 9049 ft 103 kts 164°
2026-05-07 11:56 54.03940 -2.83528 9050 ft 103 kts 164°
2026-05-07 11:56 54.03283 -2.83051 9050 ft 103 kts 164°
2026-05-07 11:56 54.02625 -2.82573 9050 ft 103 kts 164°
2026-05-07 11:56 54.01967 -2.82095 9050 ft 103 kts 164°
2026-05-07 11:57 54.01309 -2.81618 9051 ft 103 kts 164°
2026-05-07 11:57 54.00650 -2.81140 9051 ft 103 kts 164°
2026-05-07 11:57 53.99991 -2.80662 9051 ft 103 kts 164°
2026-05-07 11:57 53.99332 -2.80184 9052 ft 103 kts 163°
2026-05-07 11:58 53.98674 -2.79707 9052 ft 103 kts 163°
2026-05-07 11:58 53.98016 -2.79229 9052 ft 103 kts 163°
2026-05-07 11:58 53.97358 -2.78752 9052 ft 103 kts 163°
2026-05-07 11:58 53.96709 -2.78281 9053 ft 103 kts 164°
2026-05-07 11:59 53.96041 -2.77797 9053 ft 103 kts 164°
2026-05-07 11:59 53.95382 -2.77320 9053 ft 103 kts 164°
2026-05-07 11:59 53.94722 -2.76842 9053 ft 103 kts 164°
2026-05-07 11:59 53.94073 -2.76373 9053 ft 103 kts 164°
2026-05-07 12:00 53.93414 -2.75896 9054 ft 103 kts 164°
2026-05-07 12:00 53.92755 -2.75419 9054 ft 103 kts 164°
2026-05-07 12:00 53.92095 -2.74942 9054 ft 103 kts 164°
2026-05-07 12:00 53.91435 -2.74465 9054 ft 103 kts 164°
2026-05-07 12:01 53.90776 -2.73989 9054 ft 103 kts 164°
2026-05-07 12:01 53.90116 -2.73512 9054 ft 103 kts 164°
2026-05-07 12:01 53.89456 -2.73036 9055 ft 103 kts 164°
2026-05-07 12:01 53.88796 -2.72560 9055 ft 103 kts 164°
2026-05-07 12:02 53.88136 -2.72085 9055 ft 103 kts 164°
2026-05-07 12:02 53.87476 -2.71609 9055 ft 103 kts 164°
2026-05-07 12:02 53.86816 -2.71134 9056 ft 103 kts 163°
2026-05-07 12:02 53.86156 -2.70659 9057 ft 103 kts 163°
2026-05-07 12:03 53.85494 -2.70182 9058 ft 103 kts 163°
2026-05-07 12:03 53.84839 -2.69711 9058 ft 104 kts 163°
2026-05-07 12:03 53.84174 -2.69232 9058 ft 104 kts 163°
2026-05-07 12:03 53.83509 -2.68755 9058 ft 104 kts 163°
2026-05-07 12:04 53.82842 -2.68275 9058 ft 104 kts 163°
2026-05-07 12:04 53.82177 -2.67797 9058 ft 104 kts 163°
2026-05-07 12:04 53.81512 -2.67319 9058 ft 104 kts 163°
2026-05-07 12:04 53.80846 -2.66841 9058 ft 104 kts 163°
2026-05-07 12:05 53.80188 -2.66369 9058 ft 104 kts 163°
2026-05-07 12:05 53.79523 -2.65891 9058 ft 104 kts 163°
2026-05-07 12:05 53.78858 -2.65414 9058 ft 104 kts 163°
2026-05-07 12:05 53.78192 -2.64937 9058 ft 104 kts 163°
2026-05-07 12:06 53.77526 -2.64459 9058 ft 104 kts 163°
2026-05-07 12:06 53.76861 -2.63982 9058 ft 104 kts 163°
2026-05-07 12:06 53.76196 -2.63506 9058 ft 104 kts 163°
2026-05-07 12:06 53.75530 -2.63029 9058 ft 104 kts 163°
2026-05-07 12:07 53.74866 -2.62553 9058 ft 104 kts 163°
2026-05-07 12:07 53.74200 -2.62077 9058 ft 104 kts 163°
2026-05-07 12:07 53.73534 -2.61601 9059 ft 104 kts 163°
2026-05-07 12:07 53.72869 -2.61125 9059 ft 104 kts 163°
2026-05-07 12:08 53.72203 -2.60648 9059 ft 104 kts 163°
2026-05-07 12:08 53.71537 -2.60173 9059 ft 104 kts 163°
2026-05-07 12:08 53.70878 -2.59702 9059 ft 104 kts 163°
2026-05-07 12:08 53.70211 -2.59225 9059 ft 104 kts 163°
2026-05-07 12:09 53.69544 -2.58749 9059 ft 104 kts 163°
2026-05-07 12:09 53.68875 -2.58272 9059 ft 104 kts 163°
2026-05-07 12:09 53.68207 -2.57795 9059 ft 104 kts 163°
2026-05-07 12:09 53.67540 -2.57319 9059 ft 104 kts 163°
2026-05-07 12:10 53.66870 -2.56842 9059 ft 104 kts 163°
2026-05-07 12:10 53.66213 -2.56373 9059 ft 104 kts 163°
2026-05-07 12:10 53.65544 -2.55897 9059 ft 104 kts 163°
2026-05-07 12:10 53.64877 -2.55421 9059 ft 104 kts 163°
2026-05-07 12:11 53.64210 -2.54947 9059 ft 104 kts 163°
2026-05-07 12:11 53.63543 -2.54471 9059 ft 104 kts 163°
2026-05-07 12:11 53.62875 -2.53996 9059 ft 104 kts 163°
2026-05-07 12:11 53.62207 -2.53521 9059 ft 104 kts 163°
2026-05-07 12:12 53.61539 -2.53046 9059 ft 104 kts 163°
2026-05-07 12:12 53.60872 -2.52572 9059 ft 104 kts 163°
2026-05-07 12:12 53.60429 -2.52257 9059 ft 104 kts 163°
2026-05-07 12:12 53.59544 -2.51628 9059 ft 104 kts 163°
2026-05-07 12:13 53.58875 -2.51153 9059 ft 104 kts 163°
2026-05-07 12:13 53.58208 -2.50680 9059 ft 104 kts 163°
2026-05-07 12:13 53.57766 -2.50366 9059 ft 104 kts 163°
2026-05-07 12:13 53.57098 -2.49892 9059 ft 104 kts 163°
2026-05-07 12:14 53.56427 -2.49417 9059 ft 104 kts 163°
2026-05-07 12:14 53.55760 -2.48943 9059 ft 104 kts 163°
2026-05-07 12:14 53.55091 -2.48469 9059 ft 104 kts 163°
2026-05-07 12:14 53.54423 -2.47996 9059 ft 104 kts 163°
2026-05-07 12:15 53.53756 -2.47524 9059 ft 104 kts 163°
2026-05-07 12:15 53.53088 -2.47051 9059 ft 104 kts 163°
2026-05-07 12:15 53.52419 -2.46577 9059 ft 104 kts 163°
2026-05-07 12:15 53.51752 -2.46106 9060 ft 103 kts 163°
2026-05-07 12:16 53.51100 -2.45644 9059 ft 103 kts 163°
2026-05-07 12:16 53.50442 -2.45178 9058 ft 102 kts 163°
2026-05-07 12:16 53.49787 -2.44715 9058 ft 102 kts 163°
2026-05-07 12:16 53.49132 -2.44252 9059 ft 102 kts 163°
2026-05-07 12:17 53.48476 -2.43789 9059 ft 102 kts 163°
2026-05-07 12:17 53.47822 -2.43327 9059 ft 102 kts 163°
2026-05-07 12:17 53.47168 -2.42866 9059 ft 102 kts 163°
2026-05-07 12:17 53.46514 -2.42404 9058 ft 102 kts 163°
2026-05-07 12:18 53.45861 -2.41944 9058 ft 102 kts 163°
2026-05-07 12:18 53.45215 -2.41488 9058 ft 102 kts 163°
2026-05-07 12:18 53.44560 -2.41027 9058 ft 102 kts 163°
2026-05-07 12:18 53.43907 -2.40567 9058 ft 102 kts 163°
2026-05-07 12:19 53.43252 -2.40105 9058 ft 102 kts 163°
2026-05-07 12:19 53.42598 -2.39644 9058 ft 102 kts 163°
2026-05-07 12:19 53.41944 -2.39184 9058 ft 102 kts 163°
2026-05-07 12:19 53.41290 -2.38724 9058 ft 102 kts 163°
2026-05-07 12:20 53.40636 -2.38264 9058 ft 102 kts 163°
2026-05-07 12:20 53.39991 -2.37810 9058 ft 102 kts 163°
2026-05-07 12:20 53.39336 -2.37350 9058 ft 102 kts 163°
2026-05-07 12:20 53.38681 -2.36889 9058 ft 102 kts 163°
2026-05-07 12:21 53.38027 -2.36430 9058 ft 102 kts 163°
2026-05-07 12:21 53.37373 -2.35970 9057 ft 102 kts 163°
2026-05-07 12:21 53.36718 -2.35510 9057 ft 102 kts 163°
2026-05-07 12:21 53.36064 -2.35052 9057 ft 102 kts 163°
2026-05-07 12:22 53.35410 -2.34592 9057 ft 102 kts 163°
2026-05-07 12:22 53.34755 -2.34133 9057 ft 102 kts 163°
2026-05-07 12:22 53.34109 -2.33680 9057 ft 102 kts 163°
2026-05-07 12:22 53.33455 -2.33222 9057 ft 102 kts 163°
2026-05-07 12:23 53.32800 -2.32763 9057 ft 102 kts 163°
2026-05-07 12:23 53.32146 -2.32305 9057 ft 102 kts 163°
2026-05-07 12:23 53.31492 -2.31847 9057 ft 102 kts 163°
2026-05-07 12:23 53.30838 -2.31389 9057 ft 102 kts 163°
2026-05-07 12:24 53.30184 -2.30931 9057 ft 102 kts 163°
2026-05-07 12:24 53.29528 -2.30473 9057 ft 102 kts 163°
2026-05-07 12:24 53.28873 -2.30014 9057 ft 102 kts 163°
2026-05-07 12:24 53.28216 -2.29555 9057 ft 102 kts 163°
2026-05-07 12:25 53.27560 -2.29096 9057 ft 102 kts 163°
2026-05-07 12:25 53.26912 -2.28644 9057 ft 102 kts 163°
2026-05-07 12:25 53.26249 -2.28181 9057 ft 102 kts 163°
2026-05-07 12:25 53.25599 -2.27727 9057 ft 102 kts 163°
2026-05-07 12:26 53.24944 -2.27270 9057 ft 102 kts 163°
2026-05-07 12:26 53.24288 -2.26813 9057 ft 102 kts 163°
2026-05-07 12:26 53.23631 -2.26355 9057 ft 102 kts 163°
2026-05-07 12:26 53.22973 -2.25896 9058 ft 103 kts 163°
2026-05-07 12:27 53.22314 -2.25436 9058 ft 103 kts 163°
2026-05-07 12:27 53.21654 -2.24977 9057 ft 103 kts 163°
2026-05-07 12:27 53.20995 -2.24518 9057 ft 103 kts 163°
2026-05-07 12:27 53.20335 -2.24058 9057 ft 103 kts 163°
2026-05-07 12:28 53.19675 -2.23599 9057 ft 103 kts 163°
2026-05-07 12:28 53.19015 -2.23140 9057 ft 103 kts 163°
2026-05-07 12:28 53.18364 -2.22687 9057 ft 103 kts 163°
2026-05-07 12:28 53.17704 -2.22228 9057 ft 103 kts 163°
2026-05-07 12:29 53.17043 -2.21769 9057 ft 103 kts 163°
2026-05-07 12:29 53.16381 -2.21309 9057 ft 103 kts 163°
2026-05-07 12:29 53.15720 -2.20850 9057 ft 103 kts 163°
2026-05-07 12:29 53.15058 -2.20390 9057 ft 103 kts 163°
2026-05-07 12:30 53.14397 -2.19931 9057 ft 103 kts 163°
2026-05-07 12:30 53.13736 -2.19472 9057 ft 103 kts 163°
2026-05-07 12:30 53.13074 -2.19014 9057 ft 103 kts 163°
2026-05-07 12:30 53.12413 -2.18555 9057 ft 103 kts 163°
2026-05-07 12:31 53.11751 -2.18096 9057 ft 103 kts 163°
2026-05-07 12:31 53.11099 -2.17645 9057 ft 103 kts 163°
2026-05-07 12:31 53.10430 -2.17181 9057 ft 103 kts 163°
2026-05-07 12:31 53.09768 -2.16722 9057 ft 103 kts 163°
2026-05-07 12:32 53.09115 -2.16271 9057 ft 103 kts 163°
2026-05-07 12:32 53.08454 -2.15813 9057 ft 103 kts 163°
2026-05-07 12:32 53.07791 -2.15354 9057 ft 103 kts 163°
2026-05-07 12:32 53.07127 -2.14895 9057 ft 103 kts 163°
2026-05-07 12:33 53.05803 -2.13980 9057 ft 103 kts 163°
2026-05-07 12:33 53.05140 -2.13521 9057 ft 103 kts 163°
2026-05-07 12:33 53.04476 -2.13063 9057 ft 103 kts 163°
2026-05-07 12:34 53.03814 -2.12606 9057 ft 103 kts 163°
2026-05-07 12:34 53.03151 -2.12148 9057 ft 103 kts 163°
2026-05-07 12:34 53.02489 -2.11691 9057 ft 103 kts 163°
2026-05-07 12:34 53.01826 -2.11234 9057 ft 103 kts 163°
2026-05-07 12:35 53.01162 -2.10776 9057 ft 103 kts 163°
2026-05-07 12:35 53.00499 -2.10319 9057 ft 103 kts 163°
2026-05-07 12:35 52.99835 -2.09862 9057 ft 103 kts 163°
2026-05-07 12:35 52.99180 -2.09410 9057 ft 103 kts 163°
2026-05-07 12:36 52.98513 -2.08951 9057 ft 103 kts 163°
2026-05-07 12:36 52.97850 -2.08495 9057 ft 103 kts 163°
2026-05-07 12:36 52.97184 -2.08037 9057 ft 103 kts 163°
2026-05-07 12:36 52.96520 -2.07580 9057 ft 103 kts 163°
2026-05-07 12:37 52.95855 -2.07123 9057 ft 103 kts 163°
2026-05-07 12:37 52.95191 -2.06666 9057 ft 103 kts 163°
2026-05-07 12:37 52.94526 -2.06209 9057 ft 103 kts 163°
2026-05-07 12:37 52.93862 -2.05753 9057 ft 103 kts 163°
2026-05-07 12:38 52.93207 -2.05303 9057 ft 103 kts 163°
2026-05-07 12:38 52.92538 -2.04844 9057 ft 104 kts 163°
2026-05-07 12:38 52.91862 -2.04380 9057 ft 104 kts 163°
2026-05-07 12:38 52.91202 -2.03927 9057 ft 104 kts 163°
2026-05-07 12:39 52.90533 -2.03468 9057 ft 104 kts 163°
2026-05-07 12:39 52.89863 -2.03009 9057 ft 104 kts 163°
2026-05-07 12:39 52.89195 -2.02551 9057 ft 104 kts 163°
2026-05-07 12:39 52.88526 -2.02092 9057 ft 104 kts 163°
2026-05-07 12:40 52.87856 -2.01634 9057 ft 104 kts 163°
2026-05-07 12:40 52.87187 -2.01175 9057 ft 104 kts 163°
2026-05-07 12:40 52.86518 -2.00717 9057 ft 104 kts 163°
2026-05-07 12:40 52.85847 -2.00259 9057 ft 104 kts 163°
2026-05-07 12:41 52.85178 -1.99801 9056 ft 104 kts 163°
2026-05-07 12:41 52.84512 -1.99346 9057 ft 105 kts 163°
2026-05-07 12:41 52.83836 -1.98884 9058 ft 105 kts 162°
2026-05-07 12:41 52.83157 -1.98420 9058 ft 106 kts 162°
2026-05-07 12:42 52.82478 -1.97956 9057 ft 106 kts 163°
2026-05-07 12:42 52.81797 -1.97491 9057 ft 106 kts 163°
2026-05-07 12:42 52.81117 -1.97026 9062 ft 106 kts 163°
2026-05-07 12:42 52.80439 -1.96563 9066 ft 106 kts 163°
2026-05-07 12:43 52.79758 -1.96099 9066 ft 106 kts 163°
2026-05-07 12:43 52.79079 -1.95636 9068 ft 106 kts 163°
2026-05-07 12:43 52.78397 -1.95171 9068 ft 106 kts 163°
2026-05-07 12:43 52.77715 -1.94707 9068 ft 106 kts 163°
2026-05-07 12:44 52.77032 -1.94241 9067 ft 106 kts 163°
2026-05-07 12:44 52.76358 -1.93782 9067 ft 106 kts 163°
2026-05-07 12:44 52.75674 -1.93316 9067 ft 106 kts 163°
2026-05-07 12:44 52.74989 -1.92851 9067 ft 106 kts 163°
2026-05-07 12:45 52.74305 -1.92385 9067 ft 106 kts 163°
2026-05-07 12:45 52.73621 -1.91920 9067 ft 106 kts 163°
2026-05-07 12:45 52.72947 -1.91461 9066 ft 106 kts 163°
2026-05-07 12:45 52.72263 -1.90996 9066 ft 106 kts 163°
2026-05-07 12:46 52.71579 -1.90532 9066 ft 106 kts 163°
2026-05-07 12:46 52.70895 -1.90067 9066 ft 106 kts 163°
2026-05-07 12:46 52.70211 -1.89603 9066 ft 106 kts 163°
2026-05-07 12:46 52.69527 -1.89139 9065 ft 106 kts 163°
2026-05-07 12:47 52.68842 -1.88674 9065 ft 106 kts 163°
2026-05-07 12:47 52.68157 -1.88210 9065 ft 106 kts 163°
2026-05-07 12:47 52.67473 -1.87746 9064 ft 106 kts 163°
2026-05-07 12:47 52.66788 -1.87282 9064 ft 106 kts 163°
2026-05-07 12:48 52.66104 -1.86818 9064 ft 107 kts 162°
2026-05-07 12:48 52.65416 -1.86352 9064 ft 107 kts 162°
2026-05-07 12:48 52.64729 -1.85887 9063 ft 107 kts 162°
2026-05-07 12:48 52.64041 -1.85422 9063 ft 107 kts 162°
2026-05-07 12:49 52.63353 -1.84956 9063 ft 107 kts 162°
2026-05-07 12:49 52.62665 -1.84491 9062 ft 107 kts 162°
2026-05-07 12:49 52.61977 -1.84025 9062 ft 107 kts 162°
2026-05-07 12:49 52.61289 -1.83560 9062 ft 107 kts 162°
2026-05-07 12:50 52.60609 -1.83101 9061 ft 107 kts 162°
2026-05-07 12:50 52.59919 -1.82635 9061 ft 107 kts 162°
2026-05-07 12:50 52.59231 -1.82170 9060 ft 107 kts 162°
2026-05-07 12:50 52.58542 -1.81705 9060 ft 107 kts 162°
2026-05-07 12:51 52.57853 -1.81240 9060 ft 107 kts 162°
2026-05-07 12:51 52.57163 -1.80774 9060 ft 107 kts 162°
2026-05-07 12:51 52.56473 -1.80310 9059 ft 107 kts 162°
2026-05-07 12:51 52.55784 -1.79845 9059 ft 107 kts 162°
2026-05-07 12:52 52.55094 -1.79380 9059 ft 107 kts 162°
2026-05-07 12:52 52.54402 -1.78914 9058 ft 107 kts 162°
2026-05-07 12:52 52.53713 -1.78450 9058 ft 107 kts 162°
2026-05-07 12:52 52.53024 -1.77986 9058 ft 107 kts 162°
2026-05-07 12:53 52.52334 -1.77522 9058 ft 107 kts 162°
2026-05-07 12:53 52.51644 -1.77057 9058 ft 107 kts 162°
2026-05-07 12:53 52.50952 -1.76592 9085 ft 108 kts 162°
2026-05-07 12:53 52.50235 -1.76115 9080 ft 117 kts 162°
2026-05-07 12:54 52.49464 -1.75604 9062 ft 121 kts 162°
2026-05-07 12:54 52.48678 -1.75079 9058 ft 122 kts 162°
2026-05-07 12:54 52.47898 -1.74555 9025 ft 118 kts 162°
2026-05-07 12:54 52.47163 -1.74056 9046 ft 111 kts 162°
2026-05-07 12:55 52.46457 -1.73576 9054 ft 109 kts 162°
2026-05-07 12:55 52.45759 -1.73105 9056 ft 108 kts 162°
2026-05-07 12:55 52.45073 -1.72644 9057 ft 108 kts 162°
2026-05-07 12:55 52.44372 -1.72174 9057 ft 107 kts 162°
2026-05-07 12:56 52.43681 -1.71711 9058 ft 107 kts 162°
2026-05-07 12:56 52.42988 -1.71247 9057 ft 107 kts 162°
2026-05-07 12:56 52.42306 -1.70791 9057 ft 107 kts 162°
2026-05-07 12:56 52.41615 -1.70328 9058 ft 107 kts 162°
2026-05-07 12:57 52.40924 -1.69866 9058 ft 107 kts 162°
2026-05-07 12:57 52.40232 -1.69404 9058 ft 107 kts 162°
2026-05-07 12:57 52.39542 -1.68942 9058 ft 107 kts 162°
2026-05-07 12:57 52.38850 -1.68480 9058 ft 107 kts 162°
2026-05-07 12:58 52.38160 -1.68018 9058 ft 107 kts 162°
2026-05-07 12:58 52.37468 -1.67556 9058 ft 107 kts 162°
2026-05-07 12:58 52.36776 -1.67094 9058 ft 107 kts 162°
2026-05-07 12:58 52.36085 -1.66632 9059 ft 107 kts 162°
2026-05-07 12:59 52.35391 -1.66173 9059 ft 107 kts 163°
2026-05-07 12:59 52.34690 -1.65769 9059 ft 107 kts 166°
2026-05-07 12:59 52.33973 -1.65401 9084 ft 111 kts 167°
2026-05-07 12:59 52.33475 -1.65155 9072 ft 115 kts 168°
2026-05-07 13:00 52.32698 -1.64773 9062 ft 118 kts 167°
2026-05-07 13:00 52.31656 -1.64249 9060 ft 118 kts 167°
2026-05-07 13:00 52.30873 -1.63848 9051 ft 117 kts 167°
2026-05-07 13:00 52.30352 -1.63578 9056 ft 116 kts 167°
2026-05-07 13:01 52.29587 -1.63180 9059 ft 115 kts 167°
2026-05-07 13:01 52.28827 -1.62783 9060 ft 115 kts 167°
2026-05-07 13:01 52.28078 -1.62392 9045 ft 113 kts 167°
2026-05-07 13:01 52.27342 -1.62006 9053 ft 109 kts 167°
2026-05-07 13:02 52.26624 -1.61629 9058 ft 108 kts 167°
2026-05-07 13:02 52.25912 -1.61256 9060 ft 107 kts 167°
2026-05-07 13:02 52.25203 -1.60886 9060 ft 107 kts 167°
2026-05-07 13:02 52.24495 -1.60517 9061 ft 107 kts 167°
2026-05-07 13:03 52.23787 -1.60149 9061 ft 107 kts 167°
2026-05-07 13:03 52.23080 -1.59781 9061 ft 107 kts 167°
2026-05-07 13:03 52.22372 -1.59413 9061 ft 107 kts 167°
2026-05-07 13:03 52.21664 -1.59044 9061 ft 107 kts 167°
2026-05-07 13:04 52.20955 -1.58676 9061 ft 107 kts 167°
2026-05-07 13:04 52.20248 -1.58308 9061 ft 107 kts 167°
2026-05-07 13:04 52.19546 -1.57943 9095 ft 109 kts 167°
2026-05-07 13:04 52.18796 -1.57558 9076 ft 117 kts 167°
2026-05-07 13:05 52.18009 -1.57155 9063 ft 120 kts 167°
2026-05-07 13:05 52.17209 -1.56742 9060 ft 120 kts 167°
2026-05-07 13:05 52.16410 -1.56327 9064 ft 121 kts 166°
2026-05-07 13:05 52.15605 -1.55910 9061 ft 122 kts 166°
2026-05-07 13:06 52.14797 -1.55490 9060 ft 122 kts 166°
2026-05-07 13:06 52.13989 -1.55071 9060 ft 122 kts 166°
2026-05-07 13:06 52.13186 -1.54653 9028 ft 118 kts 166°
2026-05-07 13:06 52.12438 -1.54260 9047 ft 111 kts 167°
2026-05-07 13:07 52.11709 -1.53878 9056 ft 109 kts 167°
2026-05-07 13:07 52.10994 -1.53505 9058 ft 108 kts 167°
2026-05-07 13:07 52.10282 -1.53136 9059 ft 107 kts 167°
2026-05-07 13:07 52.09571 -1.52768 9059 ft 107 kts 167°
2026-05-07 13:08 52.08862 -1.52402 9059 ft 107 kts 167°
2026-05-07 13:08 52.08152 -1.52035 9059 ft 107 kts 167°
2026-05-07 13:08 52.07443 -1.51669 9059 ft 107 kts 167°
2026-05-07 13:08 52.06733 -1.51303 9059 ft 107 kts 167°
2026-05-07 13:09 52.06025 -1.50937 9059 ft 107 kts 167°
2026-05-07 13:09 52.05325 -1.50575 9059 ft 107 kts 167°
2026-05-07 13:09 52.04615 -1.50209 9058 ft 107 kts 167°
2026-05-07 13:09 52.03906 -1.49843 9059 ft 107 kts 167°
2026-05-07 13:10 52.03198 -1.49478 9058 ft 107 kts 167°
2026-05-07 13:10 52.02490 -1.49113 9059 ft 107 kts 167°
2026-05-07 13:10 52.01778 -1.48746 9072 ft 108 kts 167°
2026-05-07 13:10 52.01046 -1.48372 9065 ft 112 kts 167°
2026-05-07 13:11 52.00296 -1.47988 9060 ft 113 kts 167°
2026-05-07 13:11 51.99541 -1.47601 9058 ft 114 kts 167°
2026-05-07 13:11 51.98782 -1.47210 9062 ft 114 kts 167°
2026-05-07 13:11 51.98019 -1.46818 9059 ft 115 kts 167°
2026-05-07 13:12 51.97260 -1.46428 9058 ft 116 kts 167°
2026-05-07 13:12 51.96490 -1.46032 9059 ft 116 kts 167°
2026-05-07 13:12 51.95726 -1.45638 9041 ft 114 kts 167°
2026-05-07 13:12 51.94985 -1.45255 9051 ft 110 kts 167°
2026-05-07 13:13 51.94265 -1.44881 9056 ft 108 kts 167°
2026-05-07 13:13 51.93551 -1.44513 9058 ft 107 kts 167°
2026-05-07 13:13 51.92838 -1.44146 9058 ft 107 kts 167°
2026-05-07 13:13 51.92134 -1.43786 9058 ft 107 kts 167°
2026-05-07 13:14 51.91422 -1.43420 9058 ft 107 kts 167°
2026-05-07 13:14 51.90709 -1.43055 9058 ft 107 kts 167°
2026-05-07 13:14 51.89996 -1.42690 9058 ft 107 kts 167°
2026-05-07 13:14 51.89285 -1.42325 9058 ft 107 kts 167°
2026-05-07 13:15 51.88572 -1.41960 9058 ft 107 kts 167°
2026-05-07 13:15 51.87858 -1.41594 9058 ft 107 kts 167°
2026-05-07 13:15 51.87155 -1.41234 9058 ft 107 kts 167°
2026-05-07 13:15 51.86443 -1.40870 9058 ft 107 kts 167°
2026-05-07 13:16 51.85731 -1.40506 9058 ft 107 kts 167°
2026-05-07 13:16 51.85020 -1.40142 9057 ft 107 kts 167°
2026-05-07 13:16 51.84308 -1.39778 9058 ft 107 kts 167°
2026-05-07 13:16 51.83597 -1.39414 9057 ft 107 kts 167°
2026-05-07 13:17 51.82883 -1.39050 9057 ft 107 kts 167°
2026-05-07 13:17 51.82170 -1.38685 9057 ft 107 kts 167°
2026-05-07 13:17 51.81459 -1.38322 9057 ft 107 kts 167°
2026-05-07 13:17 51.80749 -1.37959 9057 ft 107 kts 167°
2026-05-07 13:18 51.80037 -1.37596 9057 ft 107 kts 167°
2026-05-07 13:18 51.79326 -1.37233 9057 ft 107 kts 167°
2026-05-07 13:18 51.78614 -1.36871 9057 ft 107 kts 167°
2026-05-07 13:18 51.77912 -1.36513 9057 ft 107 kts 167°
2026-05-07 13:19 51.77200 -1.36150 9058 ft 107 kts 167°
2026-05-07 13:19 51.76487 -1.35787 9057 ft 107 kts 167°
2026-05-07 13:19 51.75775 -1.35424 9058 ft 107 kts 167°
2026-05-07 13:19 51.75063 -1.35061 9058 ft 107 kts 167°
2026-05-07 13:20 51.74352 -1.34700 9058 ft 107 kts 167°
2026-05-07 13:20 51.73648 -1.34341 9058 ft 107 kts 167°
2026-05-07 13:20 51.72936 -1.33979 9058 ft 107 kts 167°
2026-05-07 13:20 51.72225 -1.33618 9058 ft 107 kts 167°
2026-05-07 13:21 51.71515 -1.33257 9058 ft 107 kts 167°
2026-05-07 13:21 51.70801 -1.32894 9058 ft 107 kts 167°
2026-05-07 13:21 51.70088 -1.32532 9058 ft 107 kts 167°
2026-05-07 13:21 51.69376 -1.32170 9058 ft 107 kts 167°
2026-05-07 13:22 51.68672 -1.31813 9058 ft 107 kts 167°
2026-05-07 13:22 51.67961 -1.31452 9059 ft 107 kts 167°
2026-05-07 13:22 51.67250 -1.31091 9059 ft 107 kts 167°
2026-05-07 13:22 51.66539 -1.30731 9059 ft 107 kts 167°
2026-05-07 13:23 51.65829 -1.30371 9059 ft 107 kts 167°
2026-05-07 13:23 51.65116 -1.30010 9058 ft 107 kts 167°
2026-05-07 13:23 51.64405 -1.29649 9058 ft 107 kts 167°
2026-05-07 13:23 51.63694 -1.29289 9058 ft 107 kts 167°
2026-05-07 13:24 51.62984 -1.28930 9058 ft 107 kts 167°
2026-05-07 13:24 51.62273 -1.28570 9058 ft 107 kts 167°
2026-05-07 13:24 51.61562 -1.28210 9058 ft 107 kts 167°
2026-05-07 13:24 51.60852 -1.27851 9058 ft 107 kts 167°
2026-05-07 13:25 51.60149 -1.27496 9057 ft 107 kts 167°
2026-05-07 13:25 51.59435 -1.27135 9057 ft 107 kts 167°
2026-05-07 13:25 51.58724 -1.26775 9057 ft 107 kts 167°
2026-05-07 13:25 51.58013 -1.26416 9057 ft 107 kts 167°
2026-05-07 13:26 51.57302 -1.26057 9057 ft 107 kts 167°
2026-05-07 13:26 51.56592 -1.25699 9057 ft 107 kts 167°
2026-05-07 13:26 51.55880 -1.25339 9057 ft 107 kts 167°
2026-05-07 13:26 51.55168 -1.24980 9057 ft 107 kts 167°
2026-05-07 13:27 51.54457 -1.24622 9057 ft 107 kts 167°
2026-05-07 13:27 51.53748 -1.24264 9057 ft 107 kts 167°
2026-05-07 13:27 51.53039 -1.23907 9057 ft 107 kts 167°
2026-05-07 13:27 51.52327 -1.23548 9057 ft 107 kts 166°
2026-05-07 13:28 51.51625 -1.23195 9057 ft 107 kts 166°
2026-05-07 13:28 51.50913 -1.22837 9057 ft 107 kts 166°
2026-05-07 13:28 51.50200 -1.22478 9057 ft 107 kts 166°
2026-05-07 13:28 51.49487 -1.22119 9057 ft 107 kts 166°
2026-05-07 13:29 51.48759 -1.21994 9058 ft 105 kts 185°
2026-05-07 13:29 51.48029 -1.22050 9059 ft 105 kts 186°
2026-05-07 13:29 51.47298 -1.22108 9058 ft 105 kts 186°
2026-05-07 13:29 51.46565 -1.22167 9057 ft 105 kts 186°
2026-05-07 13:30 51.45834 -1.22227 9057 ft 105 kts 186°
2026-05-07 13:30 51.45104 -1.22286 9057 ft 105 kts 186°
2026-05-07 13:30 51.44374 -1.22346 9057 ft 105 kts 186°
2026-05-07 13:30 51.43642 -1.22405 9057 ft 105 kts 186°
2026-05-07 13:31 51.42911 -1.22465 9057 ft 105 kts 186°
2026-05-07 13:31 51.42189 -1.22524 9057 ft 105 kts 186°
2026-05-07 13:31 51.41457 -1.22584 9057 ft 105 kts 186°
2026-05-07 13:31 51.40728 -1.22643 9057 ft 105 kts 186°
2026-05-07 13:32 51.39996 -1.22703 9057 ft 105 kts 186°
2026-05-07 13:32 51.39265 -1.22762 9057 ft 105 kts 186°
2026-05-07 13:32 51.38535 -1.22822 9057 ft 105 kts 186°
2026-05-07 13:32 51.37805 -1.22881 9057 ft 105 kts 186°
2026-05-07 13:33 51.37075 -1.22941 9057 ft 105 kts 186°
2026-05-07 13:33 51.36344 -1.23000 9057 ft 105 kts 186°
2026-05-07 13:33 51.35613 -1.23060 9057 ft 105 kts 186°
2026-05-07 13:33 51.34892 -1.23119 9057 ft 105 kts 186°
2026-05-07 13:34 51.34153 -1.23179 9057 ft 105 kts 186°
2026-05-07 13:34 51.32701 -1.23297 9057 ft 105 kts 186°
2026-05-07 13:34 51.31972 -1.23351 9057 ft 105 kts 185°
2026-05-07 13:35 51.31241 -1.23403 9057 ft 105 kts 185°
2026-05-07 13:35 51.30509 -1.23456 9057 ft 105 kts 185°
2026-05-07 13:35 51.29778 -1.23508 9057 ft 105 kts 185°
2026-05-07 13:35 51.29048 -1.23560 9058 ft 105 kts 185°
2026-05-07 13:36 51.28318 -1.23613 9057 ft 105 kts 185°
2026-05-07 13:36 51.27596 -1.23666 9057 ft 105 kts 185°
2026-05-07 13:36 51.26864 -1.23719 9057 ft 105 kts 185°
2026-05-07 13:36 51.26134 -1.23773 9057 ft 105 kts 185°
2026-05-07 13:37 51.25403 -1.23826 9057 ft 105 kts 185°
2026-05-07 13:37 51.24672 -1.23866 9057 ft 105 kts 184°
2026-05-07 13:37 51.23940 -1.23869 9057 ft 105 kts 184°
2026-05-07 13:37 51.23210 -1.23898 9057 ft 105 kts 184°
2026-05-07 13:38 51.22479 -1.23930 9058 ft 105 kts 184°
2026-05-07 13:38 51.21749 -1.23962 9058 ft 105 kts 184°
2026-05-07 13:38 51.21017 -1.24021 9058 ft 105 kts 186°
2026-05-07 13:38 51.20287 -1.24103 9053 ft 106 kts 186°
2026-05-07 13:39 51.19526 -1.24192 8941 ft 113 kts 186°
2026-05-07 13:39 51.18740 -1.24286 8872 ft 114 kts 186°
2026-05-07 13:39 51.17980 -1.24379 8790 ft 106 kts 188°
2026-05-07 13:39 51.17329 -1.24852 8715 ft 103 kts 216°
2026-05-07 13:40 51.16768 -1.25561 8642 ft 103 kts 221°
2026-05-07 13:40 51.16239 -1.26329 8568 ft 103 kts 222°
2026-05-07 13:40 51.15711 -1.27106 8493 ft 103 kts 222°
2026-05-07 13:40 51.15186 -1.27883 8418 ft 103 kts 222°
2026-05-07 13:41 51.14662 -1.28661 8343 ft 103 kts 222°
2026-05-07 13:41 51.14141 -1.29440 8268 ft 103 kts 223°
2026-05-07 13:41 51.13670 -1.30298 8193 ft 103 kts 231°
2026-05-07 13:41 51.13244 -1.31221 8119 ft 104 kts 232°
2026-05-07 13:42 51.12825 -1.32141 8045 ft 104 kts 232°
2026-05-07 13:42 51.12402 -1.33074 7970 ft 104 kts 232°
2026-05-07 13:42 51.11977 -1.34012 7896 ft 104 kts 232°
2026-05-07 13:42 51.11558 -1.34944 7819 ft 103 kts 232°
2026-05-07 13:43 51.11142 -1.35869 7742 ft 102 kts 232°
2026-05-07 13:43 51.10731 -1.36789 7667 ft 102 kts 232°
2026-05-07 13:43 51.10326 -1.37699 7593 ft 102 kts 232°
2026-05-07 13:43 51.09915 -1.38620 7518 ft 102 kts 231°
2026-05-07 13:44 51.09466 -1.39497 7444 ft 102 kts 227°
2026-05-07 13:44 51.09005 -1.40359 7369 ft 103 kts 227°
2026-05-07 13:44 51.08542 -1.41228 7294 ft 103 kts 227°
2026-05-07 13:44 51.08079 -1.42100 7219 ft 103 kts 227°
2026-05-07 13:45 51.07614 -1.42977 7145 ft 104 kts 227°
2026-05-07 13:45 51.07156 -1.43845 7070 ft 103 kts 227°
2026-05-07 13:45 51.06700 -1.44711 6993 ft 101 kts 227°
2026-05-07 13:45 51.06250 -1.45568 6917 ft 101 kts 227°
2026-05-07 13:46 51.05802 -1.46421 6841 ft 100 kts 225°
2026-05-07 13:46 51.05215 -1.46969 6769 ft 98 kts 199°
2026-05-07 13:46 51.04569 -1.47324 6696 ft 98 kts 197°
2026-05-07 13:46 51.04139 -1.47556 6647 ft 99 kts 197°
2026-05-07 13:47 51.03269 -1.48030 6547 ft 99 kts 197°
2026-05-07 13:47 51.02625 -1.48382 6470 ft 97 kts 197°
2026-05-07 13:47 51.01991 -1.48731 6378 ft 97 kts 197°
2026-05-07 13:47 51.01364 -1.49081 6258 ft 97 kts 197°
2026-05-07 13:48 51.00728 -1.49442 6133 ft 97 kts 197°
2026-05-07 13:48 51.00089 -1.49807 6009 ft 98 kts 197°
2026-05-07 13:48 50.99447 -1.50175 5884 ft 98 kts 197°
2026-05-07 13:48 50.98804 -1.50545 5760 ft 99 kts 197°
2026-05-07 13:49 50.98157 -1.50918 5635 ft 99 kts 197°
2026-05-07 13:49 50.97515 -1.51289 5508 ft 96 kts 197°
2026-05-07 13:49 50.97102 -1.51530 5423 ft 94 kts 197°
2026-05-07 13:49 50.96489 -1.51888 5296 ft 93 kts 197°
2026-05-07 13:50 50.95882 -1.52245 5170 ft 93 kts 197°
2026-05-07 13:50 50.95279 -1.52600 5045 ft 93 kts 197°
2026-05-07 13:50 50.94673 -1.52957 4937 ft 93 kts 197°
2026-05-07 13:50 50.94022 -1.53092 4845 ft 97 kts 178°
2026-05-07 13:51 50.93343 -1.53077 4724 ft 97 kts 177°
2026-05-07 13:51 50.92671 -1.53058 4598 ft 96 kts 177°
2026-05-07 13:51 50.92004 -1.53041 4477 ft 96 kts 177°
2026-05-07 13:51 50.91343 -1.53025 4355 ft 96 kts 177°
2026-05-07 13:52 50.90670 -1.53011 4230 ft 97 kts 177°
2026-05-07 13:52 50.89996 -1.52997 4105 ft 97 kts 177°
2026-05-07 13:52 50.89321 -1.52984 3980 ft 97 kts 177°
2026-05-07 13:52 50.88644 -1.52972 3855 ft 97 kts 177°
2026-05-07 13:53 50.87968 -1.52961 3730 ft 97 kts 177°
2026-05-07 13:53 50.87290 -1.52952 3605 ft 97 kts 177°
2026-05-07 13:53 50.86611 -1.52943 3479 ft 97 kts 177°
2026-05-07 13:53 50.85933 -1.52935 3354 ft 97 kts 177°
2026-05-07 13:54 50.85254 -1.52928 3229 ft 97 kts 177°
2026-05-07 13:54 50.84575 -1.52922 3104 ft 98 kts 177°
2026-05-07 13:54 50.83956 -1.52602 2934 ft 97 kts 133°
2026-05-07 13:54 50.83642 -1.51702 2808 ft 90 kts 117°
2026-05-07 13:55 50.83384 -1.50813 2681 ft 89 kts 117°
2026-05-07 13:55 50.83129 -1.49925 2564 ft 88 kts 117°
2026-05-07 13:55 50.82880 -1.49050 2490 ft 87 kts 117°
2026-05-07 13:55 50.82634 -1.48180 2417 ft 87 kts 117°
2026-05-07 13:56 50.82391 -1.47317 2343 ft 87 kts 117°
2026-05-07 13:56 50.82145 -1.46441 2269 ft 87 kts 117°
2026-05-07 13:56 50.81899 -1.45561 2192 ft 87 kts 117°
2026-05-07 13:56 50.81653 -1.44678 2118 ft 88 kts 117°
2026-05-07 13:57 50.81406 -1.43791 2044 ft 88 kts 117°
2026-05-07 13:57 50.81159 -1.42898 1969 ft 89 kts 117°
2026-05-07 13:57 50.80913 -1.42006 1868 ft 88 kts 117°
2026-05-07 13:57 50.80677 -1.41142 1778 ft 84 kts 117°
2026-05-07 13:58 50.80448 -1.40293 1700 ft 84 kts 117°
2026-05-07 13:58 50.80217 -1.39434 1626 ft 86 kts 117°
2026-05-07 13:58 50.79982 -1.38560 1569 ft 88 kts 117°
2026-05-07 13:58 50.79742 -1.37656 1494 ft 91 kts 117°
2026-05-07 13:59 50.79504 -1.36726 1407 ft 91 kts 117°
2026-05-07 13:59 50.79269 -1.35800 1330 ft 90 kts 117°
2026-05-07 13:59 50.79036 -1.34879 1255 ft 90 kts 117°
2026-05-07 13:59 50.78806 -1.33969 1180 ft 90 kts 117°
2026-05-07 14:00 50.78573 -1.33051 1105 ft 90 kts 117°
2026-05-07 14:00 50.78340 -1.32132 1030 ft 89 kts 117°
2026-05-07 14:00 50.78124 -1.31283 1026 ft 80 kts 117°
2026-05-07 14:00 50.77914 -1.30459 990 ft 81 kts 117°
2026-05-07 14:01 50.77708 -1.29645 977 ft 79 kts 117°
2026-05-07 14:01 50.77761 -1.28809 957 ft 84 kts 53°
2026-05-07 14:01 50.78119 -1.28148 998 ft 77 kts 66°
2026-05-07 14:01 50.78362 -1.27399 994 ft 77 kts 67°
2026-05-07 14:02 50.78608 -1.26643 998 ft 75 kts 66°
2026-05-07 14:02 50.78812 -1.25908 984 ft 74 kts 73°
2026-05-07 14:02 50.79011 -1.25145 931 ft 75 kts 73°
2026-05-07 14:02 50.79215 -1.24445 891 ft 70 kts 62°
2026-05-07 14:03 50.79547 -1.23836 794 ft 75 kts 52°
2026-05-07 14:03 50.79922 -1.23249 669 ft 76 kts 47°
2026-05-07 14:03 50.80299 -1.22659 484 ft 75 kts 53°
2026-05-07 14:03 50.80680 -1.22075 308 ft 78 kts 51°
2026-05-07 14:04 50.81062 -1.21464 137 ft 80 kts 51°
2026-05-07 14:04 50.81428 -1.20886 43 ft 59 kts 51°
2026-05-07 14:04 50.81576 -1.20633 36 ft 0 kts 46°
2026-05-07 14:05 50.81577 -1.20631 36 ft 1 kts 46°
2026-05-07 14:05 50.81583 -1.20616 36 ft 2 kts 64°
2026-05-07 14:05 50.81599 -1.20580 36 ft 7 kts 45°
2026-05-07 14:05 50.81635 -1.20525 36 ft 4 kts 43°
2026-05-07 14:06 50.81654 -1.20496 36 ft 4 kts 43°
2026-05-07 14:06 50.81664 -1.20451 36 ft 7 kts 160°
2026-05-07 14:06 50.81593 -1.20452 36 ft 13 kts 180°
2026-05-07 14:06 50.81497 -1.20454 36 ft 15 kts 182°
2026-05-07 14:07 50.81392 -1.20455 36 ft 16 kts 181°
2026-05-07 14:07 50.81283 -1.20457 36 ft 15 kts 180°
2026-05-07 14:07 50.81206 -1.20455 36 ft 9 kts 178°
2026-05-07 14:07 50.81193 -1.20520 36 ft 8 kts 280°
2026-05-07 14:08 50.81205 -1.20615 36 ft 9 kts 283°
2026-05-07 14:08 50.81205 -1.20674 36 ft 0 kts 198°